TimeEDT,TemperatureF,Dew PointF,Humidity,Sea Level PressureIn,VisibilityMPH,Wind Direction,Wind SpeedMPH,Gust SpeedMPH,PrecipitationIn,Events,Conditions,WindDirDegrees,DateUTC
12:53 AM,62.1,60.1,93,29.92,10.0,SSE,4.6,-,N/A,,Clear,150,2013-05-22 04:53:00
1:53 AM,62.1,60.1,93,29.90,10.0,Calm,Calm,-,N/A,,Clear,0,2013-05-22 05:53:00
2:53 AM,62.1,59.0,90,29.88,10.0,Calm,Calm,-,N/A,,Clear,0,2013-05-22 06:53:00
3:13 AM,60.8,59.0,94,29.91,10.0,Variable,3.5,-,N/A,,Partly Cloudy,0,2013-05-22 07:13:00
3:53 AM,63.0,57.9,84,29.86,10.0,Variable,3.5,-,N/A,,Mostly Cloudy,0,2013-05-22 07:53:00
4:53 AM,63.0,57.9,84,29.86,10.0,Calm,Calm,-,N/A,,Partly Cloudy,0,2013-05-22 08:53:00
5:53 AM,60.1,57.9,93,29.88,10.0,Calm,Calm,-,N/A,,Clear,0,2013-05-22 09:53:00
6:53 AM,62.1,57.9,86,29.90,10.0,Calm,Calm,-,N/A,,Clear,0,2013-05-22 10:53:00
7:53 AM,64.0,59.0,84,29.91,10.0,Calm,Calm,-,N/A,,Clear,0,2013-05-22 11:53:00
8:53 AM,66.9,60.1,79,29.90,10.0,Calm,Calm,-,N/A,,Clear,0,2013-05-22 12:53:00
9:53 AM,70.0,62.1,76,29.90,10.0,Variable,4.6,-,N/A,,Clear,0,2013-05-22 13:53:00
10:53 AM,75.0,64.0,69,29.90,10.0,Variable,4.6,-,N/A,,Clear,0,2013-05-22 14:53:00
11:53 AM,78.1,64.9,64,29.89,10.0,Variable,4.6,-,N/A,,Clear,0,2013-05-22 15:53:00
12:53 PM,80.1,64.0,58,29.88,10.0,Variable,4.6,-,N/A,,Mostly Cloudy,0,2013-05-22 16:53:00
1:53 PM,81.0,64.0,56,29.87,10.0,Variable,4.6,-,N/A,,Clear,0,2013-05-22 17:53:00
2:53 PM,80.1,60.1,50,29.86,10.0,Variable,6.9,-,N/A,,Partly Cloudy,0,2013-05-22 18:53:00
3:53 PM,82.9,61.0,47,29.83,10.0,Variable,6.9,-,N/A,,Partly Cloudy,0,2013-05-22 19:53:00
4:53 PM,79.0,57.9,48,29.82,10.0,Variable,6.9,-,N/A,,Clear,0,2013-05-22 20:53:00
5:53 PM,78.1,60.1,54,29.82,10.0,Variable,3.5,-,N/A,,Clear,0,2013-05-22 21:53:00
6:53 PM,77.0,60.1,56,29.81,10.0,Calm,Calm,-,N/A,,Clear,0,2013-05-22 22:53:00
7:53 PM,73.9,61.0,64,29.82,10.0,Calm,Calm,-,N/A,,Clear,0,2013-05-22 23:53:00
8:53 PM,70.0,62.1,76,29.83,10.0,WNW,4.6,-,0.00,,Overcast,300,2013-05-23 00:53:00
9:42 PM,68.0,62.6,83,29.88,10.0,Calm,Calm,-,N/A,Thunderstorm,Mostly Cloudy,0,2013-05-23 01:42:00
9:53 PM,68.0,63.0,84,29.85,10.0,Calm,Calm,-,N/A,,Mostly Cloudy,0,2013-05-23 01:53:00
10:16 PM,68.0,62.6,83,29.89,10.0,Calm,Calm,-,N/A,Thunderstorm,Overcast,0,2013-05-23 02:16:00
10:39 PM,68.0,62.6,83,29.89,10.0,Calm,Calm,-,N/A,,Overcast,0,2013-05-23 02:39:00
10:53 PM,68.0,62.1,81,29.86,10.0,Calm,Calm,-,N/A,,Overcast,0,2013-05-23 02:53:00
11:11 PM,64.4,62.6,94,29.90,2.0,Calm,Calm,-,0.05,Rain-Thunderstorm,Heavy Thunderstorms and Rain,0,2013-05-23 03:11:00
11:22 PM,64.4,64.4,100,29.90,4.0,Variable,3.5,-,0.10,Rain-Thunderstorm,Light Thunderstorms and Rain,0,2013-05-23 03:22:00
11:41 PM,64.4,62.6,94,29.90,10.0,Calm,Calm,-,0.12,Thunderstorm,Thunderstorm,0,2013-05-23 03:41:00
11:53 PM,64.9,63.0,93,29.86,5.0,Calm,Calm,-,0.13,Rain-Thunderstorm,Rain,0,2013-05-23 03:53:00